www.pogodaiklimat.ru

Погода и климат >> Архив погоды >> Болгария >> Бургас


ПОГОДА в Бургасе

  • Прогноз погоды в Бургасе
  • Монитор погоды в Бургасе

АРХИВ ПОГОДЫ в Бургасе

Время (UTC), дата Ветер
(напр.,м/с)
 
Видим.   Явления Облачность Т
(С)
Тd
(С)
f
(%)
Тe
(С)
Тes
(С)
Комфортность P
(гПа)
Po
(гПа)
Тmin
(С)
Tmax
(С)
R
(мм)
R24
(мм)
S
(см)
18 12.06 З 3 20 км {гроза} 9/6 600 м
[Cb calv Ac cuf Ci ing]
+25.0 +19.8 73 +31 +31 очень
душно
1011.8 1008.7 +23.3 +29.3 270
21 12.06 З 4 18 км 10/0
[Ci]
+22.0 +17.5 76 +27 +27 душно 1012.5 1009.4 +22.0 +25.0
00 13.06 З 2 18 км 4/0
[Ci fib]
+21.4 1012.1 1009.0 +21.4 +25.0
03 13.06 штиль 0 18 км 6/1 600 м
[Sc Ci fib]
+20.4 +16.8 80 +23 +23 комфорт 1012.3 1009.1 +20.4 +25.0
06 13.06 штиль 0 18 км 8/3 600 м
[Sc Ci fib]
+23.9 0.0 21 +23 +29 комфорт 1013.4 1010.3 +20.4 +25.0
09 13.06 штиль 0 18 км 6/6 600 м
[Cu med, cong]
+29.8 +17.9 49 +34 +44 очень
душно
1013.8 1010.7 +23.9 +30.0
12 13.06 В 6 20 км 6/6 600 м
[Cu med, cong]
+30.0 1013.5 1010.5 +23.9 +31.2
15 13.06 В 4 18 км 4/4 600 м
[Cu med, cong]
+29.8 +19.6 54 +36 +38 очень
душно
1013.3 1010.2 +23.9 +31.2
18 13.06 СВ 1 15 км гроза без осадков 8/4 600 м
[Cb calv Ac cuf Ci ing]
+25.2 +18.4 66 +30 +30 душно 1014.0 1010.9 +23.9 +31.2
21 13.06 штиль 0 18 км 3/3 600 м
[Cu hum]
+23.1 +18.8 77 +29 +29 очень
душно
1014.9 1011.8 +23.0 +25.2
00 14.06 З 2 18 км ясно +22.1 1014.5 1011.4 +22.1 +25.2
03 14.06 штиль 0 18 км 1/1 600 м
[Cu hum]
+20.6 +17.9 85 +24 +24 комфорт 1014.9 1011.7 +20.6 +25.2
06 14.06 штиль 0 18 км ясно +23.2 1015.0 1011.9 +20.4 +25.2
09 14.06 СЗ 2 20 км ясно +29.8 +14.3 39 +32 +50 душно 1014.8 1011.7 +23.2 +29.8
12 14.06 В 4 20 км 8/8 600 м
[Cb calv]
+27.0 1014.8 1011.7 +23.2 +30.4
15 14.06 СЗ 10 18 км гроза, ливневой дождь 10/10 600 м
[Cb calv]
+21.8 +17.9 79 +26 +26 душно 1014.0 1010.9 +21.6 +30.4
18 14.06 С 4 18 км {гроза, ливн. осадки} 9/9 600 м
[Cb calv]
+22.5 +18.2 77 +28 +28 душно 1014.9 1011.8 +21.6 +30.4 4 220
21 14.06 З 3 18 км {ливн. осадки} 9/9 600 м
[Cb calv]
+21.8 +17.9 79 +26 +26 душно 1015.1 1012.0 +21.8 +22.6
00 15.06 З 2 18 км {ливн. осадки} 9/9 600 м
[Cb calv]
+22.2 +18.4 79 +27 +27 душно 1014.2 1011.1 +21.8 +22.6 0.0 0
03 15.06 З 2 18 км 8/8 600 м
[Cu med, cong]
+22.1 +16.5 71 +26 +26 душно 1013.4 1010.3 +21.6 +22.6
06 15.06 С 4 18 км 9/9 600 м
[Cu med, cong]
+23.9 1013.0 1009.9 +21.6 +24.0
09 15.06 С 8 18 км 9/9 600 м
[Cb calv]
+25.5 +21.1 77 +32 +33 очень
душно
1013.5 1010.4 +23.6 +26.5
12 15.06 СВ 12 18 км 8/8 600 м
[Cu med, cong]
+25.6 1013.1 1010.0 +23.6 +26.5
15 15.06 В 8
{16}
18 км 3/3 600 м
[Cu hum Ci fib]
+25.3 +20.6 75 +31 +32 очень
душно
1012.3 1009.2 +23.6 +26.5
18 15.06 СВ 6
{16}
18 км 4/1 600 м
[Sc Ac trans]
+25.2 1012.9 1009.8 +23.6 +26.5
21 15.06 С 2 18 км 4/0
[Ci fib]
+23.6 +14.5 57 +26 +26 жарко 1013.2 1010.1 +23.4 +25.2
00 16.06 штиль 0 18 км ясно +21.8 1012.7 1009.6 +21.6 +25.2
03 16.06 штиль 0 18 км ясно +20.4 +17.1 81 +23 +23 комфорт 1012.2 1009.0 +20.4 +25.2
06 16.06 СВ 1 18 км ясно +24.3 1012.1 1009.0 +20.4 +25.2
09 16.06 С 2 20 км ясно +29.4 +19.3 55 +35 +54 опасность
солнечного
удара
1012.0 1008.9 +24.2 +29.4
12 16.06 В 4 20 км 3/3 600 м
[Cu med, cong]
+28.6 1011.5 1008.4 +24.2 +29.9
15 16.06 В 6 20 км 1/1 600 м
[Cu hum]
+26.5 +19.7 66 +32 +34 очень
душно
1010.4 1007.3 +24.2 +29.9
18 16.06 В 6 20 км 6/0
[Ci fib]
+25.2 1010.5 1007.4 +24.2 +29.9
21 16.06 С 2 20 км 4/0
[Ci fib]
+23.3 +13.5 54 +27 +27 душно 1011.1 1008.0 +23.3 +25.2
00 17.06 штиль 0 20 км ясно +21.6 1010.8 1007.7 +21.6 +25.2
03 17.06 штиль 0 18 км 6/6 600 м
[St]
+19.3 +16.3 83 +21 +21 комфорт 1011.4 1008.2 +19.3 +25.2
06 17.06 штиль 0 18 км 1/0
[Ac trans]
+22.4 1012.0 1008.9 +18.4 +25.2
09 17.06 В 2 20 км 3/3 600 м
[Sc Ac trans]
+29.7 +16.9 46 +33 +46 душно 1011.7 1008.6 +22.4 +29.7
12 17.06 СВ 8 20 км 8/3 600 м
[Cu med, cong Ci fib]
+29.0 1011.5 1008.4 +22.4 +29.7
15 17.06 В 10 20 км 4/3 600 м
[Cu med, cong Ac trans Ci fib]
+26.6 +22.1 76 +34 +35 очень
душно
1011.3 1008.2 +22.4 +29.7
18 17.06 С 6 18 км 8/1 600 м
[Cu hum Ci fib]
+26.1 1011.9 1008.8 +22.4 +29.7
21 17.06 С 8 18 км ясно +23.3 +18.2 73 +29 +29 душно 1013.2 1010.1 +23.3 +26.3
00 18.06 С 2 18 км 6/6 600 м
[Sc]
+22.0 1012.9 1009.8 +22.0 +26.3
03 18.06 штиль 0 18 км 6/3 600 м
[Sc Ac trans]
+21.2 +16.9 76 +25 +25 комфорт 1012.7 1009.6 +20.9 +26.3
06 18.06 штиль 0 18 км ясно +24.5 1013.5 1010.4 +20.9 +26.3
09 18.06 В 6 18 км 3/3 600 м
[Cu med, cong Ci fib]
+28.0 +20.1 62 +34 +39 очень
душно
1013.9 1010.8 +24.5 +28.0
12 18.06 В 12 20 км 6/6 600 м
[Cu med, cong]
+27.0 1013.8 1010.7 +24.5 +28.0
15 18.06 В 12 20 км 3/3 600 м
[Cu med, cong]
+25.8 +22.2 81 +34 +34 очень
душно
1012.4 1009.3 +24.5 +28.0
18 18.06 СВ 7 20 км 3/0
[Ci fib]
+24.8 1012.8 1009.7 +24.5 +28.0
21 18.06 штиль 0 18 км 3/0
[Ci fib]
+22.6 +16.4 68 +27 +27 душно 1013.6 1010.5 +22.6 +25.0
00 19.06 штиль 0 18 км ясно +20.6 1013.2 1010.0 +20.6 +25.0
03 19.06 З 2 18 км 6/6 600 м
[Sc]
+19.4 +16.4 83 +22 +22 комфорт 1013.1 1009.9 +19.4 +25.0
06 19.06 штиль 0 18 км 8/8 600 м
[Cu med, cong Ci fib]
+22.2 1013.1 1010.0 +19.4 +25.0
09 19.06 В 8 18 км 8/8 600 м
[Cu med, cong]
+26.8 +16.5 53 +30 +31 душно 1013.3 1010.2 +22.2 +27.0
12 19.06 В 8 18 км 3/3 600 м
[Cu med, cong]
+27.3 1012.7 1009.6 +22.2 +27.6
15 19.06 В 4 18 км 3/3 600 м
[Cu med, cong]
+27.1 +17.6 56 +31 +34 душно 1011.3 1008.2 +22.2 +27.6

 

Местоположение метеостанции Бургас (Болгария): широта 42.48 долгота 27.48 высота над уровнем моря 28 м.

В архиве по умолчанию представлена погода в Бургасе за последнюю неделю. Архивные данные за месяц целиком и за предыдущие месяцы, начиная с января 2011 года, Вы можете получить, выбрав интересующий диапазон дат из раскрывающегося списка и нажав кнопку "Ввод!".


*Определитесь, кто Вы:
робот инопланетянин человек

Внимание! Время в таблицах - всемирное. Для получения местного времени необходимо прибавить поправку, которая равна 2 ч.

Смотрите также архив погоды в соседних городах и на ближайших метеорологических станциях:

Погода в Кыркларели (Турция) (86 км)
Погода в Варне (Болгария) (88 км)
Погода в Сливене (Болгария) (97 км)
Погода в Эдирне (Турция) (117 км)
Погода в Разграде (Болгария) (139 км)
Погода в Текирдаге (Турция) (167 км)
Погода в Стамбул Новом аэропорту (Турция) (171 км)
Погода в Мангалии (Румыния) (174 км)
Погода в Кумкое (Турция) (182 км)
Погода в Адамклиси (Румыния) (182 км)

Пояснения к столбцам:

Ветер - указаны скорость ветра в м/с - средняя за 10 мин, порывы в срок и между сроками (в фигурных скобках) и направление, откуда дует ветер: С - северный, СВ - северо-восточный, В - восточный, ЮВ - юго-восточный, Ю - южный, ЮЗ - юго-западный, З - западный, СЗ - северо-западный.
Видимость - горизонтальная дальность видимости в метрах или километрах. При видимости от 1 до 10 км при отсутствии осадков обычно наблюдается дымка, при ухудшении видимости до 1 км и менее - туман. В сухую погоду видимость может ухудшаться дымом, пылью или мглою.
Явления - указаны атмосферные явления, наблюдавшиеся в срок или в последний час перед сроком; фигурными скобками обозначены явления, наблюдавшиеся между сроками (за 1-3 часа до срока); квадратными скобками обозначены град или гололедные отложения с указанием их диаметра в мм.
Облачность - указаны через наклонную черту общая и нижняя облачность в баллах и высота нижней границы облаков в метрах; квадратными скобками обозначены формы облаков: Ci - перистые, Cs - перисто-слоистые, Cc - перисто-кучевые, Ac - высококучевые, As - высокослоистые, Sc - слоисто-кучевые, Ns - слоисто-дождевые, Cu - кучевые, Cb - кучево-дождевые. Подробнее классификацию облаков см. в Атласе облаков (PDF).
T - Температура воздуха - температура, измеренная на высоте 2 м над землей.
Td - Температура точки росы - температура, при понижении до которой содержащийся в воздухе водяной пар достигнет насыщения.
f - Относительная влажность воздуха - влажноcть воздуха, измеренная на высоте 2 м над землей.
Te - Эффективная температура - температура, которую ощущает одетый по сезону человек в тени. Характеристика душности погоды. При расчете учитывается влияние влажности воздуха и скорости ветра на теплоощущения человека.
Tes - Эффективная температура на солнце - температура, которую ощущает человек, с поправкой на солнечный нагрев. Характеристика знойности погоды. Зависит от высоты солнца над горизонтом, облачности и скорости ветра. Ночью, в пасмурную погоду, а также при ветре 12 м/с и более поправка равна нулю.
P - Атмосферное давление - приведенное к уровню моря атмосферное давление.
Po - Атмосферное давление - измеренное на уровне метеостанции атмосферное давление.
Tmin - Минимальная температура - минимум температуры воздуха на высоте 2 м над землей.
Tmax - Максимальная температура - максимум температуры воздуха на высоте 2 м над землей.
R - Количество осадков - Количество выпавших осадков за период времени, мм. При наведении курсора мыши на число - период времени, за который выпало указанное количество осадков.
R24 - Количество осадков - Количество выпавших осадков за 24 часа, мм.
S - Снежный покров - Высота снежного покрова, см. При наведении курсора мыши на число - состояние снежного покрова и степень покрытия местности в баллах.